Regional Weather Roundup
Issued by NWS Cleveland, OH

Home | Current Version | Previous Version | Text Only | Print | Product List | Glossary Off
Versions: 1 2 3 4 5 6 7 8 9 10 11 12 13 14 15 16 17 18 19 20 21 22 23 24 25 26 27 28 29 30 31 32 33 34 35 36 37 38 39 40 41 42 43 44 45 46 47 48 49 50

000
ASUS41 KCLE 301610
RWRCLE
OHIO REGIONAL WEATHER ROUNDUP
NATIONAL WEATHER SERVICE WILMINGTON, OH
1200 PM EDT THU MAR 30 2017

NOTE: "FAIR" INDICATES FEW OR NO CLOUDS BELOW 12,000 FEET WITH NO
SIGNIFICANT WEATHER AND/OR OBSTRUCTIONS TO VISIBILITY.

OHZ001>008-015>018-024>027-034-035-043-044-301700-
   NORTHWEST OHIO

CITY           SKY/WX    TMP DP  RH WIND       PRES   REMARKS
DEFIANCE       CLOUDY    41  38  89 E17       29.85F
FINDLAY        TSTM      43  38  82 NE21G28   29.85F
TOLEDO EXPRESS LGT RAIN  39  38  96 E17G31    29.90F
TOLEDO EXEC    RAIN      39  37  92 E18G31    29.92F FOG
LIMA           CLOUDY    46  43  89 NE16G25   29.82F
$$

OHZ009>014-019>023-028>033-038-089-301700-
   NORTHEAST OHIO

CITY           SKY/WX    TMP DP  RH WIND       PRES   REMARKS
CLE-HOPKINS    CLOUDY    45  37  73 E15       29.94F
CLE-LAKEFRONT  CLOUDY    43  37  79 E13G23    29.92F
CUY CO. ARPT   CLOUDY    43  39  87 E23G30    29.93F
LORAIN-ELYRIA  FAIR      44  37  76 E16       29.92F
ASHTABULA      RAIN      38  36  92 E10       30.04S FOG
AKRON-CANTON   LGT RAIN  47  38  71 NE14      29.93F
WOOSTER        PTSUNNY   47  38  71 E14       29.91F
MANSFIELD      FAIR      50  41  71 E15       29.86F
YOUNGSTOWN     TSTM      41  35  79 NE14      30.00R FOG
$$

OHZ042-051>053-060>062-070>072-077>081-301700-
  SOUTHWEST OHIO

CITY           SKY/WX    TMP DP  RH WIND       PRES   REMARKS
CINC-COVINGTON CLOUDY    70  57  63 S16       29.75F
CINC-LUNKEN    FAIR      68  57  68 S10       29.76F
HAMILTON       FAIR      66  53  63 VRB6      29.76F
DAYTON         CLOUDY    61  46  57 E8        29.78F
WRIGHT-PAT AFB PTSUNNY   62  48  60 SE7       29.77F
DAYTON GENERAL FAIR      64  51  62 S10       29.76F
WILMINGTON     FAIR      65  54  67 S15       29.78F
$$

OHZ036-037-039>041-045>050-054>059-063>069-073>076-082>088-301700-
  CENTRAL AND SOUTHEAST OHIO

CITY           SKY/WX    TMP DP  RH WIND       PRES   REMARKS
COLUMBUS       PTSUNNY   59  46  62 SE10      29.83F
OSU AIRPORT    PTSUNNY   59  46  62 SE13      29.82F
BOLTON FIELD   PTSUNNY   59  48  67 S13       29.83F
RICKENBACK AFB PTSUNNY   59  49  67 S10       29.83F
NEWARK         FAIR      58  46  64 SE7       29.85F
MARION         FAIR      56  41  57 E12       29.84F
LANCASTER      PTSUNNY   61  49  64 SE9       29.85F
ZANESVILLE     PTSUNNY   55  45  68 SE9       29.87F
NEW PHILLY     CLOUDY    53  38  56 SE9G20    29.91F
$$



USA.gov is the U.S. government's official web portal to all federal, state and local government web resources and services.